This is the latest recevied weather packets stored in our database for station/object KM4KBD. If no packets are shown the sender has not sent any weather packets the latest 10 day(s).
| Time | Temp. | Humidity | Pressure | Rain* | Wind** | Luminosity | Snow |
|---|---|---|---|---|---|---|---|
| 1778096390 | 16.11° C | 74% | 1019.1 hPa | 0 mm | - | 234 W/m² | - |
| 1778096088 | 15.56° C | 73% | 1019.1 hPa | 0 mm | - | 252 W/m² | - |
| 1778095784 | 15.56° C | 73% | 1018.8 hPa | 0 mm | - | 211 W/m² | - |
| 1778095482 | 15.56° C | 74% | 1019.1 hPa | 0 mm | - | 234 W/m² | - |
| 1778095178 | 15.56° C | 74% | 1018.7 hPa | 0 mm | - | 207 W/m² | - |
| 1778094875 | 16.11° C | 71% | 1018.8 hPa | 0 mm | - | 232 W/m² | - |
| 1778094571 | 16.11° C | 72% | 1018.8 hPa | 0 mm | - | 255 W/m² | - |
| 1778094268 | 16.11° C | 72% | 1018.7 hPa | 0 mm | - | 259 W/m² | - |
| 1778093965 | 16.11° C | 71% | 1019.1 hPa | 0 mm | - | 307 W/m² | - |
| 1778093662 | 15.56° C | 72% | 1018.8 hPa | 0 mm | - | 338 W/m² | - |
| 1778093359 | 16.11° C | 75% | 1018.9 hPa | 0 mm | - | 302 W/m² | - |
| 1778093056 | 16.11° C | 71% | 1018.9 hPa | 0 mm | - | 313 W/m² | - |
| 1778092754 | 16.11° C | 73% | 1018.5 hPa | 0 mm | - | 310 W/m² | - |
| 1778092448 | 15.56° C | 74% | 1018.6 hPa | 0 mm | - | 243 W/m² | - |
| 1778092146 | 16.11° C | 73% | 1018.5 hPa | 0 mm | - | 208 W/m² | - |
| 1778091843 | 16.11° C | 72% | 1018.7 hPa | 0 mm | - | 331 W/m² | - |
| 1778091540 | 15.56° C | 75% | 1018.8 hPa | 0 mm | - | 266 W/m² | - |
| 1778091238 | 15.56° C | 73% | 1018.8 hPa | 0 mm | - | 213 W/m² | - |
| 1778090935 | 15.56° C | 80% | 1018.8 hPa | 0 mm | - | 249 W/m² | - |
| 1778090631 | 15° C | 79% | 1018.6 hPa | 0 mm | - | 275 W/m² | - |
| 1778090328 | 15° C | 79% | 1018.6 hPa | 0 mm | - | 207 W/m² | - |
| 1778090024 | 15.56° C | 78% | 1018.7 hPa | 0 mm | - | 185 W/m² | - |
| 1778089721 | 15.56° C | 79% | 1018.7 hPa | 0 mm | - | 225 W/m² | - |
| 1778089419 | 15° C | 81% | 1018.6 hPa | 0 mm | - | 281 W/m² | - |
| 1778089117 | 14.44° C | 82% | 1018.9 hPa | 0 mm | - | 350 W/m² | - |
* Rain latest hour (hover to see other rain measurements)
** Current wind speed in m/s (hover to see current wind gust speed)